Bloomington, IL

4:52 PM CST on February 22, 2017 (GMT -0600)
Central Ill Regional

Weather History for KBMI - February, 2012

Change the Weather History Date:

Saturday, February 18, 2012

  Actual Average Record
Temperature  
Mean Temperature 31 °F -  
Max Temperature 38 °F 13 °F 64 °F (2017)
Min Temperature 22 °F 0 °F -1 °F (2006)
Degree Days  
Heating Degree Days 34    
Moisture  
Dew Point 24 °F    
Average Humidity 74    
Maximum Humidity 92    
Minimum Humidity 53    
Precipitation  
Precipitation 0.00 in - - ()
Sea Level Pressure  
Sea Level Pressure 30.20 in    
Wind  
Wind Speed 10 mph (NNE)    
Max Wind Speed 17 mph    
Max Gust Speed -    
Visibility 10 miles    
Events      
Averages and records for this station are not official NWS values.
T = Trace of Precipitation, MM = Missing Value Source: NWS Daily Summary

Daily Weather History Graph

Daily Weather History Graph

Search for Another Location

Airport or City:

Trip Planner

Search our weather history database for the weather conditions in past years. The results will help you decide how hot, cold, wet, or windy it might be!

Date:

Astronomy

Feb. 18, 2012 Rise Set
Actual Time 6:45 AM CST 5:33 PM CST
Civil Twilight 6:18 AM CST 6:01 PM CST
Nautical Twilight 5:46 AM CST 6:33 PM CST
Astronomical Twilight 5:14 AM CST 7:05 PM CST
Moon 4:25 AM CST (2/18) 2:30 PM CST (2/18)
Length of Visible Light 11h 43m
Length of Day
10h 47m
Waning Crescent, 11% of the Moon is Illuminated
Feb 18
Waning Crescent
Feb 21
New
Feb 29
First Quarter
Mar 8
Full
Mar 14
Last Quarter

Hourly Weather History & Observations

Time (CST) Temp. Windchill Dew Point Humidity Pressure Visibility Wind Dir Wind Speed Gust Speed Precip Events Conditions
12:56 AM 34.9 °F 29.0 °F 27.1 °F 73% 30.13 in 10.0 mi NW 6.9 mph - N/A   Partly Cloudy
1:56 AM 32.0 °F 24.8 °F 26.1 °F 79% 30.14 in 10.0 mi WNW 8.1 mph - N/A   Clear
2:56 AM 32.0 °F 23.0 °F 26.1 °F 79% 30.14 in 10.0 mi NW 11.5 mph - N/A   Clear
3:56 AM 30.0 °F 20.5 °F 25.2 °F 82% 30.14 in 10.0 mi NW 11.5 mph - N/A   Clear
4:56 AM 28.0 °F 21.7 °F 26.1 °F 92% 30.16 in 10.0 mi West 5.8 mph - N/A   Clear
7:56 AM 29.1 °F 18.9 °F 25.2 °F 85% 30.21 in 10.0 mi NNW 12.7 mph - N/A   Clear
8:56 AM 31.1 °F 20.5 °F 26.1 °F 82% 30.22 in 10.0 mi North 15.0 mph - N/A   Clear
9:56 AM 34.0 °F 24.6 °F 27.1 °F 76% 30.24 in 10.0 mi NNW 13.8 mph - N/A   Clear
10:36 AM 35.6 °F 26.2 °F 26.6 °F 70% 30.19 in 10.0 mi North 15.0 mph - N/A   Mostly Cloudy
10:56 AM 36.9 °F 27.8 °F 27.1 °F 68% 30.23 in 10.0 mi NNE 15.0 mph - N/A   Mostly Cloudy
11:38 AM 37.4 °F 29.8 °F 23.0 °F 56% 30.20 in 10.0 mi North 11.5 mph - N/A   Partly Cloudy
11:56 AM 37.9 °F 28.5 °F 23.0 °F 55% 30.22 in 10.0 mi NE 17.3 mph - N/A   Clear
12:56 PM 38.8 °F 30.8 °F 23.0 °F 53% 30.20 in 10.0 mi NNE 13.8 mph - N/A   Clear
2:56 PM 38.8 °F 30.8 °F 23.0 °F 53% 30.20 in 10.0 mi NE 13.8 mph - N/A   Scattered Clouds
3:56 PM 36.9 °F 29.6 °F 23.0 °F 57% 30.22 in 10.0 mi NE 10.4 mph - N/A   Scattered Clouds
4:56 PM 36.9 °F 30.1 °F 23.0 °F 57% 30.22 in 10.0 mi ENE 9.2 mph - N/A   Partly Cloudy
5:56 PM 31.1 °F 23.1 °F 23.0 °F 72% 30.23 in 10.0 mi ENE 9.2 mph - N/A   Clear
6:56 PM 29.1 °F 20.0 °F 24.1 °F 81% 30.24 in 10.0 mi East 10.4 mph - N/A   Clear
7:56 PM 27.1 °F 17.5 °F 23.0 °F 84% 30.24 in 10.0 mi ENE 10.4 mph - N/A   Clear
8:56 PM 26.1 °F 16.8 °F 22.1 °F 85% 30.24 in 10.0 mi ENE 9.2 mph - N/A   Clear
9:56 PM 24.1 °F 14.4 °F 22.1 °F 92% 30.24 in 10.0 mi East 9.2 mph - N/A   Clear
10:56 PM 24.1 °F 13.7 °F 21.0 °F 88% 30.23 in 10.0 mi ENE 10.4 mph - N/A   Clear
11:56 PM 22.1 °F 12.8 °F 20.1 °F 92% 30.23 in 10.0 mi ENE 8.1 mph - N/A   Clear